Home   Weather   Owen Sound   Past weeks

Flag for Canada Past Weather in Owen Sound, Ontario, Canada — Yesterday and Last 2 Weeks

Now
36 °F

Passing clouds.


Feels Like: 31 °F
Forecast: 28 / 39 °F
Wind: 6 mph from Northwest

Location: Wiarton

Current Time: Dec 3, 2016 at 7:00:21 pm

Latest Report: Dec 3, 2016 at 6:00 pm


Visibility: 15 mi

Pressure: 30.26 "Hg

Humidity: 87%

Dew Point: 32 °F

Location of Owen SoundLocation

Past Weather in Owen Sound — Graph

°F

Owen Sound Temperature Yesterday

Maximum temperature yesterday: 39 °F (at 5:00 am)
Minimum temperature yesterday: 36 °F (at 9:00 am)
Average temperature yesterday: 37 °F

High & Low Weather Summary for the Past Weeks

 TemperatureHumidityPressure
High63 °F (Nov 18, 5:00 pm)100% (Nov 19, 3:00 pm)30.38 "Hg (Nov 19, 3:00 pm)
Low18 °F (Nov 22, 11:00 pm)55% (Nov 21, 12:00 pm)29.42 "Hg (Nov 30, 11:00 pm)
Average37 °F85%29.95 "Hg
* Reported Nov 18 5:00 pm — Dec 3 5:00 pm, Owen Sound, Weather by CustomWeather, © 2016

Note: Actual official high and low records may vary slightly from our data, if they occured in-between our weather recording intervals... More about our weather records

Advertising

Owen Sound Weather History for the Previous 24 Hours

Scroll right to see more
 ConditionsComfort  
Time TempWeatherWind HumidityBarometerVisibility
5:00 pm
Sat, Dec 3
37 °FPassing clouds.6 mph70%30.25 "Hg15 mi
4:00 pm37 °FOvercast.8 mph60%30.24 "Hg15 mi
3:00 pm37 °FOvercast.5 mph75%30.21 "Hg15 mi
2:00 pm37 °FOvercast.5 mph70%30.19 "Hg15 mi
1:00 pm37 °FOvercast.5 mph70%30.20 "Hg15 mi
12:00 pm37 °FOvercast.5 mph70%30.21 "Hg15 mi
11:00 am36 °FOvercast.5 mph70%30.23 "Hg15 mi
10:00 am36 °FOvercast.5 mph75%30.23 "Hg15 mi
9:00 am34 °FBroken clouds.5 mph81%30.21 "Hg15 mi
8:00 am32 °FPartly sunny.5 mph80%30.20 "Hg15 mi
7:00 am32 °FPassing clouds.6 mph87%30.18 "Hg15 mi
6:00 am32 °FPassing clouds.5 mph87%30.17 "Hg15 mi
5:00 am34 °FPassing clouds.6 mph81%30.16 "Hg15 mi
4:00 am34 °FPassing clouds.5 mph87%30.15 "Hg15 mi
3:00 am34 °FPassing clouds.6 mph87%30.14 "Hg15 mi
2:00 am36 °FPassing clouds.5 mph81%30.13 "Hg15 mi
1:00 am36 °FPassing clouds.5 mph81%30.12 "Hg15 mi
12:00 am36 °FOvercast.6 mph81%30.11 "Hg15 mi
11:00 pm
Fri, Dec 2
36 °FOvercast.5 mph75%30.10 "Hg15 mi
10:00 pm36 °FPassing clouds.7 mph75%30.07 "Hg15 mi
9:00 pm36 °FPassing clouds.8 mph75%30.06 "Hg15 mi
8:00 pm36 °FPassing clouds.8 mph75%30.03 "Hg15 mi
7:00 pm36 °FPassing clouds.9 mph70%30.01 "Hg15 mi
Weather by CustomWeather, © 2016

See weather overviewHow to use our weather pages